TIANLIAN 1-03

Last updated on Aug. 5, 2020, 5:33 a.m. UTC

1 38730U 12040A   20217.92966201  .00000109  00000-0  00000-0 0  9995
2 38730   0.3381 105.0855 0003622 312.4748 251.5111  1.00277943 29509
UTC
Height (km)
Latitude
Longitude
Inclination
Orbital Period
UTC large
Height (km)
Speed (km/s)
/
Latitude / Longitude
Inclination (degrees)
Orbital Period (minutes)
Azimuth
Elevation
Range (km)
Doppler Factor
iOS Compass Heading
iOS Angle

Next 30 passes for location: Hong Kong

Rise time Rise Azimuth (degrees) Set time Set Azimuth (degrees) Duration Max altitude (degrees)

No matching passes for this satellites